Liberal, KS

9:49 AM CDT on May 26, 2017 (GMT -0500)
Liberal Municipal

Weather History for KLBL - June, 2013

Change the Weather History Date:

Wednesday, June 5, 2013

  Actual Average Record
Temperature  
Mean Temperature 62 °F -  
Max Temperature 66 °F 84 °F 102 °F (1946)
Min Temperature 55 °F 57 °F 46 °F (1970)
Degree Days  
Heating Degree Days 4    
Growing Degree Days 12 (Base 50)    
Moisture  
Dew Point 54 °F    
Average Humidity 76    
Maximum Humidity 83    
Minimum Humidity 67    
Precipitation  
Precipitation 0.44 in - - ()
Sea Level Pressure  
Sea Level Pressure 30.05 in    
Wind  
Wind Speed 16 mph (NNE)    
Max Wind Speed 26 mph    
Max Gust Speed 32 mph    
Visibility 10 miles    
Events Thunderstorm    
Averages and records for this station are not official NWS values.
T = Trace of Precipitation, MM = Missing Value Source: NWS Daily Summary

Daily Weather History Graph

Daily Weather History Graph

Search for Another Location

Airport or City:

Trip Planner

Search our weather history database for the weather conditions in past years. The results will help you decide how hot, cold, wet, or windy it might be!

Date:

Astronomy

Jun. 05, 2013 Rise Set
Actual Time 6:24 AM CDT 9:00 PM CDT
Civil Twilight 5:53 AM CDT 9:31 PM CDT
Nautical Twilight 5:16 AM CDT 10:09 PM CDT
Astronomical Twilight 4:33 AM CDT 10:51 PM CDT
Moon 4:26 AM CDT (6/5) 6:31 PM CDT (6/5)
Length of Visible Light 15h 37m
Length of Day
14h 36m
Waning Crescent, 8% of the Moon is Illuminated
Jun 5
Waning Crescent
Jun 8
New
Jun 16
First Quarter
Jun 23
Full
Jun 29
Last Quarter

Hourly Weather History & Observations

Time (CDT) Temp. Dew Point Humidity Pressure Visibility Wind Dir Wind Speed Gust Speed Precip Events Conditions
12:15 AM 60.8 °F 53.6 °F 77% 29.93 in 10.0 mi East 19.6 mph 28.8 mph N/A   Overcast
12:35 AM 62.6 °F 55.4 °F 77% 29.91 in 10.0 mi ENE 11.5 mph - N/A   Overcast
12:55 AM 64.4 °F 55.4 °F 73% 29.95 in 10.0 mi North 11.5 mph - 0.01 in Thunderstorm Thunderstorm
1:15 AM 64.4 °F 55.4 °F 73% 30.00 in 10.0 mi North 18.4 mph - 0.01 in Thunderstorm Thunderstorm
1:35 AM 64.4 °F 55.4 °F 73% 29.97 in 10.0 mi ENE 11.5 mph - 0.02 in Thunderstorm Thunderstorm
1:55 AM 64.4 °F 55.4 °F 73% 29.92 in 10.0 mi ESE 20.7 mph 25.3 mph 0.02 in   Mostly Cloudy
2:15 AM 64.4 °F 55.4 °F 73% 29.94 in 10.0 mi SE 16.1 mph - N/A Thunderstorm Scattered Clouds
2:35 AM 62.6 °F 55.4 °F 77% 29.95 in 10.0 mi ESE 9.2 mph 20.7 mph 0.01 in Thunderstorm Thunderstorm
2:55 AM 62.6 °F 55.4 °F 77% 29.94 in 10.0 mi East 11.5 mph - 0.04 in Thunderstorm Thunderstorm
3:15 AM 62.6 °F 55.4 °F 77% 29.95 in 10.0 mi South 8.1 mph - N/A Thunderstorm Mostly Cloudy
3:35 AM 62.6 °F 55.4 °F 77% 29.99 in 8.0 mi West 5.8 mph - 0.12 in Thunderstorm Thunderstorm
3:55 AM 62.6 °F 55.4 °F 77% 29.99 in 10.0 mi SSW 12.7 mph - 0.17 in Thunderstorm Thunderstorm
4:15 AM 62.6 °F 57.2 °F 82% 29.98 in 10.0 mi SW 11.5 mph - 0.02 in   Overcast
4:35 AM 62.6 °F 55.4 °F 77% 30.00 in 10.0 mi SSW 13.8 mph - 0.04 in   Overcast
4:55 AM 62.6 °F 57.2 °F 82% 30.03 in 10.0 mi SW 11.5 mph - 0.07 in   Overcast
5:15 AM 62.6 °F 55.4 °F 77% 30.04 in 10.0 mi SW 9.2 mph - 0.03 in   Overcast
5:35 AM 62.6 °F 57.2 °F 82% 30.02 in 10.0 mi NNW 10.4 mph - 0.07 in   Overcast
5:55 AM 64.4 °F 57.2 °F 77% 30.04 in 10.0 mi SW 15.0 mph - 0.10 in   Overcast
6:15 AM 64.4 °F 57.2 °F 77% 30.01 in 10.0 mi SSW 8.1 mph - 0.02 in   Overcast
6:35 AM 64.4 °F 55.4 °F 73% 29.98 in 10.0 mi South 15.0 mph - 0.03 in   Overcast
6:55 AM 64.4 °F 55.4 °F 73% 29.94 in 10.0 mi NNE 16.1 mph 25.3 mph 0.03 in   Scattered Clouds
7:15 AM 62.6 °F 55.4 °F 77% 29.96 in 9.0 mi North 23.0 mph - N/A   Clear
7:35 AM 62.6 °F 55.4 °F 77% 29.98 in 10.0 mi North 21.9 mph - N/A   Clear
7:55 AM 62.6 °F 55.4 °F 77% 29.98 in 10.0 mi North 24.2 mph 27.6 mph N/A   Clear
8:15 AM 62.6 °F 55.4 °F 77% 29.95 in 10.0 mi NNE 26.5 mph 32.2 mph N/A   Clear
8:35 AM 62.6 °F 57.2 °F 82% 29.95 in 5.0 mi NNE 24.2 mph 31.1 mph N/A   Scattered Clouds
8:55 AM 64.4 °F 57.2 °F 77% 29.97 in 9.0 mi NNE 20.7 mph 27.6 mph N/A   Partly Cloudy
9:15 AM 64.4 °F 57.2 °F 77% 29.99 in 10.0 mi NNE 24.2 mph 31.1 mph N/A   Partly Cloudy
9:35 AM 64.4 °F 59.0 °F 83% 30.01 in 10.0 mi NNE 26.5 mph 32.2 mph N/A   Mostly Cloudy
9:55 AM 64.4 °F 57.2 °F 77% 30.04 in 10.0 mi NE 15.0 mph 24.2 mph N/A   Overcast
10:15 AM 64.4 °F 59.0 °F 83% 30.06 in 10.0 mi NE 17.3 mph 20.7 mph N/A   Overcast
10:35 AM 66.2 °F 59.0 °F 78% 30.07 in 10.0 mi NE 15.0 mph 20.7 mph N/A   Overcast
10:55 AM 66.2 °F 59.0 °F 78% 30.08 in 10.0 mi NNE 21.9 mph 28.8 mph N/A   Overcast
11:15 AM 62.6 °F 55.4 °F 77% 30.09 in 10.0 mi NE 20.7 mph - N/A   Overcast
11:35 AM 62.6 °F 55.4 °F 77% 30.10 in 10.0 mi NNE 20.7 mph - N/A   Overcast
11:55 AM 60.8 °F 55.4 °F 82% 30.11 in 10.0 mi NNE 18.4 mph 23.0 mph N/A   Overcast
12:15 PM 60.8 °F 53.6 °F 77% 30.12 in 10.0 mi NNE 17.3 mph - N/A   Overcast
12:35 PM 60.8 °F 53.6 °F 77% 30.12 in 10.0 mi NNE 17.3 mph 21.9 mph N/A   Overcast
12:55 PM 60.8 °F 53.6 °F 77% 30.12 in 10.0 mi NNE 15.0 mph 19.6 mph N/A   Overcast
1:15 PM 60.8 °F 53.6 °F 77% 30.12 in 10.0 mi NNE 12.7 mph - N/A   Overcast
1:35 PM 60.8 °F 53.6 °F 77% 30.11 in 9.0 mi North 13.8 mph - N/A   Overcast
1:55 PM 60.8 °F 53.6 °F 77% 30.12 in 5.0 mi North 16.1 mph - N/A   Overcast
2:15 PM 60.8 °F 53.6 °F 77% 30.11 in 5.0 mi North 18.4 mph - N/A   Overcast
2:35 PM 59.0 °F 53.6 °F 82% 30.12 in 5.0 mi NNE 17.3 mph - N/A   Overcast
2:55 PM 59.0 °F 51.8 °F 77% 30.11 in 7.0 mi NNE 18.4 mph - N/A   Overcast
3:15 PM 60.8 °F 53.6 °F 77% 30.11 in 10.0 mi NNE 17.3 mph - N/A   Overcast
3:35 PM 60.8 °F 53.6 °F 77% 30.11 in 10.0 mi NNE 18.4 mph 23.0 mph N/A   Overcast
3:55 PM 60.8 °F 53.6 °F 77% 30.11 in 10.0 mi NNE 17.3 mph - N/A   Overcast
4:15 PM 60.8 °F 53.6 °F 77% 30.10 in 10.0 mi North 16.1 mph 21.9 mph N/A   Overcast
4:35 PM 60.8 °F 53.6 °F 77% 30.10 in 10.0 mi North 18.4 mph - N/A   Overcast
4:55 PM 60.8 °F 53.6 °F 77% 30.09 in 10.0 mi North 18.4 mph - N/A   Overcast
5:15 PM 60.8 °F 53.6 °F 77% 30.10 in 10.0 mi NNE 17.3 mph 23.0 mph N/A   Overcast
5:35 PM 62.6 °F 53.6 °F 72% 30.09 in 10.0 mi NNE 19.6 mph - N/A   Overcast
5:55 PM 62.6 °F 53.6 °F 72% 30.08 in 10.0 mi NE 17.3 mph 24.2 mph N/A   Overcast
6:15 PM 62.6 °F 53.6 °F 72% 30.09 in 10.0 mi NNE 17.3 mph - N/A   Overcast
6:35 PM 62.6 °F 53.6 °F 72% 30.10 in 10.0 mi NNE 13.8 mph - N/A   Overcast
6:55 PM 62.6 °F 53.6 °F 72% 30.09 in 10.0 mi NNE 13.8 mph - N/A   Overcast
7:15 PM 62.6 °F 53.6 °F 72% 30.09 in 10.0 mi NNE 13.8 mph - N/A   Overcast
7:35 PM 62.6 °F 53.6 °F 72% 30.09 in 10.0 mi NNE 12.7 mph - N/A   Overcast
7:55 PM 62.6 °F 51.8 °F 68% 30.10 in 10.0 mi North 16.1 mph - N/A   Overcast
8:15 PM 62.6 °F 51.8 °F 68% 30.10 in 10.0 mi North 15.0 mph - N/A   Overcast
8:35 PM 62.6 °F 51.8 °F 68% 30.10 in 10.0 mi North 13.8 mph - N/A   Overcast
8:55 PM 60.8 °F 51.8 °F 72% 30.10 in 10.0 mi North 11.5 mph - N/A   Overcast
9:15 PM 60.8 °F 51.8 °F 72% 30.10 in 10.0 mi North 12.7 mph - N/A   Overcast
9:35 PM 60.8 °F 51.8 °F 72% 30.11 in 10.0 mi North 12.7 mph - N/A   Overcast
9:55 PM 60.8 °F 51.8 °F 72% 30.11 in 10.0 mi NNE 16.1 mph - N/A   Overcast
10:15 PM 60.8 °F 50.0 °F 68% 30.11 in 10.0 mi North 15.0 mph - N/A   Mostly Cloudy
10:35 PM 59.0 °F 50.0 °F 72% 30.11 in 10.0 mi NNE 16.1 mph - N/A   Mostly Cloudy
10:55 PM 59.0 °F 48.2 °F 67% 30.11 in 10.0 mi NNE 10.4 mph - N/A   Clear
11:15 PM 57.2 °F 48.2 °F 72% 30.13 in 10.0 mi NNE 10.4 mph - N/A   Clear
11:35 PM 57.2 °F 48.2 °F 72% 30.14 in 10.0 mi NNE 10.4 mph - N/A   Clear
11:55 PM 55.4 °F 48.2 °F 77% 30.14 in 10.0 mi North 8.1 mph - N/A   Clear